Flag for Germany Weather past 2 weeks in Halle, Saxony-Anhalt, Germany

Now
68 °F

Scattered clouds.


Feels Like: 68 °F
Forecast: 51 / 68 °F
Wind: 6 mph from Northwest

Location: Leipzig-Schkeuditz

Current Time: Oct 1, 2014 at 2:16:46 PM

Latest Report: Oct 1, 2014 at 1:50 PM


Visibility: N/A

Pressure: 30.33 "Hg

Humidity: 69%

Dew point: 57 °F

Location of HalleLocation

Historic Weather in Halle — Graph

°F

Halle temperature yesterday

Maximum temperature yesterday: 70 °F (at 4:20 PM)
Minimum temperature yesterday: 59 °F (at 6:50 AM)
Average temperature yesterday: 64 °F

Past Weeks' High & Low Weather Summary

 TemperatureHumidityPressure
High77 °F (Sep 29, 2:20 PM)100% (Sep 17, 6:20 AM)30.36 "Hg (Sep 17, 6:20 AM)
Low45 °F (Sep 24, 2:20 AM)44% (Sep 17, 4:50 PM)29.86 "Hg (Sep 24, 4:50 PM)
Average59 °F83%30.07 "Hg
* Reported Sep 16 1:20 PM — Oct 1 1:20 PM, Halle, Weather by CustomWeather, © 2014

Note: Actual official high and low records may vary slightly from our data, if they occured in-between our weather recording intervals... More about our weather records

Advertising

Halle weather history for previous 24 hours

 ConditionsComfort  
Time TempWeatherWind HumidityBarometerVisibility
1:20 PM
Oct 1
66 °FScattered clouds.5 mph73%30.33 "Hg5 mi
12:50 PM66 °FBroken clouds.6 mph78%30.33 "Hg4 mi
12:20 PM64 °FBroken clouds.3 mph88%30.33 "Hg4 mi
11:50 AM64 °FFog.5 mph83%30.33 "Hg3 mi
11:20 AM64 °FFog.3 mph83%30.33 "Hg3 mi
10:50 AM63 °FFog.3 mph88%30.33 "Hg2 mi
10:20 AM61 °FFog.1 mph94%30.33 "Hg1 mi
9:50 AM59 °FFog.2 mph100%30.33 "Hg1 mi
9:20 AM59 °FFog.1 mph100%30.30 "Hg1 mi
8:50 AM57 °FFog.3 mph100%30.30 "Hg1 mi
8:20 AM57 °FFog.3 mph100%30.30 "Hg1 mi
7:50 AM57 °FFog.3 mph100%30.30 "Hg1 mi
7:20 AM55 °FFog.5 mph100%30.30 "Hg1 mi
6:50 AM55 °FFog.5 mph100%30.30 "Hg1 mi
6:20 AM55 °FFog.5 mph100%30.30 "Hg1 mi
5:50 AM55 °FFog.3 mph100%30.30 "Hg0 mi
5:20 AM55 °FFog.3 mph100%30.30 "Hg0 mi
4:50 AM55 °FFog.3 mph100%30.30 "Hg0 mi
4:20 AM55 °FFog.2 mph100%30.30 "Hg0 mi
3:50 AM57 °FFog.3 mph100%30.30 "Hg0 mi
3:20 AM57 °FFog.2 mph100%30.30 "Hg1 mi
2:50 AM59 °FFog.2 mph94%30.30 "Hg2 mi
2:20 AM61 °FPassing clouds.3 mph94%30.30 "Hg3 mi
1:50 AM61 °FPartly cloudy.2 mph94%30.30 "Hg4 mi
1:20 AM61 °FPassing clouds.5 mph94%30.27 "Hg4 mi
12:50 AM61 °FSprinkles. Fog.3 mph94%30.27 "Hg2 mi
12:20 AM61 °FRain showers. Fog.6 mph100%30.30 "Hg2 mi
11:50 PM
Sep 30
63 °FSprinkles. Fog.3 mph100%30.27 "Hg2 mi
11:20 PM63 °FPassing clouds.2 mph94%30.27 "Hg4 mi
10:50 PM63 °FPassing clouds.5 mph94%30.27 "Hg4 mi
10:20 PM63 °FPartly cloudy.3 mph94%30.27 "Hg4 mi
9:50 PM63 °FSprinkles. Partly cloudy.5 mph94%30.27 "Hg5 mi
9:20 PM63 °FPassing clouds.2 mph88%30.27 "HgN/A
8:50 PM63 °FSprinkles. Partly cloudy.3 mph88%30.27 "HgN/A
8:20 PM63 °FClear.1 mph88%30.27 "Hg10 mi
7:50 PM64 °FSunny.2 mph88%30.27 "Hg10 mi
7:20 PM64 °FBroken clouds.3 mph88%30.27 "HgN/A
6:50 PM64 °FBroken clouds.3 mph88%30.24 "HgN/A
6:20 PM64 °FSprinkles. Broken clouds.6 mph88%30.24 "HgN/A
5:50 PM66 °FSprinkles. Broken clouds.7 mph83%30.24 "HgN/A
5:20 PM68 °FBroken clouds.3 mph73%30.24 "HgN/A
4:50 PM70 °FPartly sunny.5 mph69%30.24 "HgN/A
4:20 PM70 °FBroken clouds.3 mph69%30.24 "HgN/A
3:50 PM68 °FScattered clouds.5 mph73%30.24 "HgN/A
3:20 PM68 °FPartly sunny.5 mph73%30.24 "HgN/A
2:50 PM68 °FSprinkles. Broken clouds.6 mph73%30.24 "HgN/A
2:20 PM68 °FPartly sunny.6 mph69%30.24 "HgN/A
Weather by CustomWeather, © 2014

See weather overviewHow to use our weather pages